Location: Nashville
(36.1660°N, 86.7840°W)
Time: 13:40:45
(UTC-05:00)

CUBEBUG 2 - Visible Passes

Search period start: 17 May 2022 00:00
Search period end: 27 May 2022 00:00
Orbit: 585 x 693 km, 97.7° (Epoch: 17 May)

Date Brightness Start Highest point End Pass type
(mag) Time Alt. Az. Time Alt. Az. Time Alt. Az.
17 May ? 02:37:30 10° ENE 02:39:17 12° E 02:40:53 10° ESE visible
17 May ? 04:11:45 10° N 04:16:06 50° WNW 04:18:26 24° SW visible
18 May ? 02:59:08 10° NE 03:02:38 22° E 03:04:18 18° SE visible
18 May ? 04:35:18 10° NNW 04:39:06 27° WNW 04:41:52 15° WSW visible
19 May ? 03:21:41 10° NNE 03:25:54 41° E 03:27:43 27° SSE visible
19 May ? 04:59:20 10° NNW 05:02:01 16° WNW 05:04:37 10° WSW visible
20 May ? 03:44:37 10° NNE 03:49:05 79° E 03:51:08 31° S visible
21 May ? 02:34:17 10° ENE 02:35:18 11° E 02:36:18 10° ESE visible
21 May ? 04:07:50 10° N 04:12:10 55° WNW 04:14:33 24° SW visible
22 May ? 02:55:24 10° NE 02:58:39 20° E 03:00:23 16° SE visible
22 May ? 04:31:20 10° N 04:35:09 29° WNW 04:37:56 15° WSW visible
23 May ? 03:17:50 10° NNE 03:21:55 37° E 03:23:47 24° SE visible
23 May ? 04:55:16 10° NNW 04:58:04 17° WNW 05:00:48 10° WSW visible
24 May ? 03:40:42 10° NNE 03:45:05 71° E 03:47:11 29° S visible
25 May ? 04:03:52 10° N 04:08:10 60° WNW 04:10:34 24° SSW visible
26 May ? 02:51:37 10° NE 02:54:36 18° E 02:56:23 14° ESE visible
26 May ? 04:27:18 10° N 04:31:10 32° WNW 04:33:56 16° SW visible
